Voltar ao catálogo

ARIANE 42P+ DEB

AtivoHEO
NORAD 26981·DEBRIS·🇫🇷 France

Lançado Oct 28, 1992 de Guiana Space Centre

Loading…

Próximas Passagens (próximas 24 horas)

TLE

AtualizadoSource: Space-Track

Época: Sep 11, 2026, 06:19 UTC

1 26981U 92072L   26254.26321216 -.00000019  00000-0  00000-0 0  9999
2 26981   9.5823 239.6871 6454489 212.8012  81.6581  2.88992701139342

Acompanhe ARIANE 42P+ DEB em tempo real com AllMySat

Download on the App Store